| time (UTC) | temp F | wind direction | speed MPH | gust MPH | rain 1hr in | rain 24hr in | rain mn in | humidity % | barometer mb |
| 20260831024151 | 94 | 20 | 3.0 | 5.0 | 0.00 | 0.00 | 0.00 | 33 | 1010.7 |
| 20260831023650 | 94 | 307 | 3.0 | 5.0 | 0.00 | 0.00 | 0.00 | 33 | 1010.5 |
| 20260831023149 | 95 | 283 | 2.0 | 2.0 | 0.00 | 0.00 | 0.00 | 32 | 1010.3 |
| 20260831022645 | 95 | 296 | 2.0 | 1.0 | 0.00 | 0.00 | 0.00 | 32 | 1010.1 |
| 20260831022140 | 95 | 311 | 2.0 | 5.0 | 0.00 | 0.00 | 0.00 | 31 | 1010.3 |
| 20260831021639 | 95 | 262 | 2.0 | 2.0 | 0.00 | 0.00 | 0.00 | 31 | 1010.1 |
| 20260831021134 | 95 | 282 | 1.0 | 2.0 | 0.00 | 0.00 | 0.00 | 31 | 1010.2 |
| 20260831020630 | 95 | 283 | 1.0 | 2.0 | 0.00 | 0.00 | 0.00 | 31 | 1010.1 |
| 20260831020125 | 95 | 303 | 2.0 | 2.0 | 0.00 | 0.00 | 0.00 | 31 | 1010.1 |
| 20260831015621 | 95 | 283 | 1.0 | 1.0 | 0.00 | 0.00 | 0.00 | 30 | 1009.9 |
| 20260831015120 | 95 | 318 | 1.0 | 2.0 | 0.00 | 0.00 | 0.00 | 30 | 1010.0 |
| 20260831014615 | 95 | 299 | 3.0 | 3.0 | 0.00 | 0.00 | 0.00 | 30 | 1010.0 |
| 20260831014110 | 95 | 289 | 3.0 | 2.0 | 0.00 | 0.00 | 0.00 | 29 | 1009.7 |
| 20260831013607 | 96 | 289 | 2.0 | 3.0 | 0.00 | 0.00 | 0.00 | 29 | 1009.8 |
| 20260831013106 | 96 | 311 | 3.0 | 5.0 | 0.00 | 0.00 | 0.00 | 29 | 1009.9 |
| 20260831012606 | 96 | 300 | 2.0 | 3.0 | 0.00 | 0.00 | 0.00 | 29 | 1009.9 |
| 20260831012101 | 96 | 311 | 2.0 | 3.0 | 0.00 | 0.00 | 0.00 | 29 | 1009.8 |
| 20260831011600 | 96 | 304 | 2.0 | 2.0 | 0.00 | 0.00 | 0.00 | 29 | 1009.7 |
| 20260831011056 | 96 | 308 | 1.0 | 1.0 | 0.00 | 0.00 | 0.00 | 29 | 1009.8 |
| 20260831010551 | 96 | 259 | 1.0 | 2.0 | 0.00 | 0.00 | 0.00 | 29 | 1009.8 |
| 20260831010048 | 96 | 304 | 2.0 | 2.0 | 0.00 | 0.00 | 0.00 | 29 | 1009.8 |
| 20260831005542 | 97 | 309 | 1.0 | 2.0 | 0.00 | 0.00 | 0.00 | 29 | 1009.6 |
| 20260831005042 | 97 | 300 | 0.0 | 0.0 | 0.00 | 0.00 | 0.00 | 29 | 1009.7 |
| 20260831004538 | 98 | 318 | 3.0 | 5.0 | 0.00 | 0.00 | 0.00 | 28 | 1009.8 |
| 20260831004033 | 98 | 299 | 4.0 | 5.0 | 0.00 | 0.00 | 0.00 | 28 | 1009.5 |
| 20260831003530 | 99 | 302 | 5.0 | 7.0 | 0.00 | 0.00 | 0.00 | 27 | 1009.7 |
| 20260831003025 | 100 | 285 | 1.0 | 1.0 | 0.00 | 0.00 | 0.00 | 27 | 1009.8 |
| 20260831002524 | 100 | 284 | 5.0 | 7.0 | 0.00 | 0.00 | 0.00 | 27 | 1009.7 |
| 20260831002019 | 101 | 238 | 5.0 | 7.0 | 0.00 | 0.00 | 0.00 | 26 | 1009.7 |
| 20260831001515 | 101 | 241 | 3.0 | 3.0 | 0.00 | 0.00 | 0.00 | 26 | 1009.9 |
| 20260831001011 | 101 | 296 | 1.0 | 2.0 | 0.00 | 0.00 | 0.00 | 26 | 1009.7 |
| 20260831000507 | 101 | 301 | 1.0 | 1.0 | 0.00 | 0.00 | 0.00 | 26 | 1009.9 |
| 20260831000006 | 101 | 294 | 2.0 | 2.0 | 0.00 | 0.00 | 0.00 | 26 | 1009.7 |
| 20260830235501 | 101 | 320 | 5.0 | 6.0 | 0.00 | 0.00 | 0.00 | 26 | 1009.8 |
| 20260830234955 | 102 | 289 | 4.0 | 5.0 | 0.00 | 0.00 | 0.00 | 26 | 1009.7 |
| 20260830234450 | 101 | 12 | 1.0 | 1.0 | 0.00 | 0.00 | 0.00 | 26 | 1009.9 |
| 20260830233946 | 102 | 304 | 3.0 | 5.0 | 0.00 | 0.00 | 0.00 | 26 | 1009.7 |
| 20260830233441 | 102 | 339 | 1.0 | 1.0 | 0.00 | 0.00 | 0.00 | 26 | 1009.7 |
| 20260830232937 | 102 | 284 | 3.0 | 3.0 | 0.00 | 0.00 | 0.00 | 26 | 1009.9 |
| 20260830232433 | 102 | 280 | 3.0 | 2.0 | 0.00 | 0.00 | 0.00 | 26 | 1009.9 |
| 20260830231929 | 102 | 355 | 2.0 | 2.0 | 0.00 | 0.00 | 0.00 | 26 | 1010.0 |
| 20260830231424 | 102 | 314 | 4.0 | 5.0 | 0.00 | 0.00 | 0.00 | 26 | 1010.0 |
| 20260830230923 | 102 | 265 | 2.0 | 3.0 | 0.00 | 0.00 | 0.00 | 26 | 1010.1 |
| 20260830230419 | 101 | 281 | 3.0 | 3.0 | 0.00 | 0.00 | 0.00 | 26 | 1010.2 |
| 20260830225918 | 101 | 297 | 2.0 | 2.0 | 0.00 | 0.00 | 0.00 | 27 | 1010.3 |
| 20260830225414 | 103 | 301 | 3.0 | 2.0 | 0.00 | 0.00 | 0.00 | 25 | 1010.3 |
| 20260830224908 | 102 | 245 | 0.0 | 0.0 | 0.00 | 0.00 | 0.00 | 25 | 1010.6 |
| 20260830224407 | 102 | 277 | 2.0 | 1.0 | 0.00 | 0.00 | 0.00 | 25 | 1010.4 |
| 20260830223904 | 102 | 281 | 2.0 | 2.0 | 0.00 | 0.00 | 0.00 | 27 | 1010.7 |
| 20260830223400 | 102 | 333 | 3.0 | 5.0 | 0.00 | 0.00 | 0.00 | 26 | 1010.7 |
| 20260830222859 | 102 | 287 | 6.0 | 7.0 | 0.00 | 0.00 | 0.00 | 25 | 1011.1 |
| 20260830222355 | 102 | 303 | 3.0 | 5.0 | 0.00 | 0.00 | 0.00 | 26 | 1010.7 |
| 20260830221850 | 101 | 279 | 0.0 | 0.0 | 0.00 | 0.00 | 0.00 | 26 | 1011.1 |
| 20260830221347 | 101 | 7 | 3.0 | 3.0 | 0.00 | 0.00 | 0.00 | 26 | 1010.9 |
| 20260830220842 | 101 | 300 | 3.0 | 3.0 | 0.00 | 0.00 | 0.00 | 27 | 1011.4 |
| 20260830220342 | 101 | 271 | 3.0 | 3.0 | 0.00 | 0.00 | 0.00 | 27 | 1011.4 |
| 20260830215839 | 100 | 296 | 5.0 | 6.0 | 0.00 | 0.00 | 0.00 | 27 | 1011.4 |
| 20260830215339 | 99 | 270 | 2.0 | 2.0 | 0.00 | 0.00 | 0.00 | 28 | 1011.3 |
| 20260830214834 | 99 | 206 | 1.0 | 1.0 | 0.00 | 0.00 | 0.00 | 28 | 1011.5 |
| 20260830214330 | 100 | 292 | 3.0 | 5.0 | 0.00 | 0.00 | 0.00 | 28 | 1011.8 |
| 20260830213829 | 101 | 313 | 2.0 | 2.0 | 0.00 | 0.00 | 0.00 | 27 | 1011.6 |
| 20260830213324 | 101 | 274 | 4.0 | 5.0 | 0.00 | 0.00 | 0.00 | 27 | 1011.7 |
| 20260830212820 | 102 | 190 | 0.0 | 0.0 | 0.00 | 0.00 | 0.00 | 26 | 1011.8 |
| 20260830212316 | 102 | 287 | 3.0 | 3.0 | 0.00 | 0.00 | 0.00 | 26 | 1011.9 |
| 20260830211814 | 102 | 276 | 4.0 | 5.0 | 0.00 | 0.00 | 0.00 | 26 | 1011.8 |
| 20260830211309 | 102 | 354 | 3.0 | 3.0 | 0.00 | 0.00 | 0.00 | 26 | 1011.9 |
| 20260830210805 | 102 | 231 | 2.0 | 2.0 | 0.00 | 0.00 | 0.00 | 26 | 1012.0 |
| 20260830210304 | 101 | 307 | 1.0 | 1.0 | 0.00 | 0.00 | 0.00 | 26 | 1012.4 |
| 20260830205802 | 100 | 317 | 2.0 | 3.0 | 0.00 | 0.00 | 0.00 | 26 | 1012.4 |
| 20260830205305 | 100 | 140 | 1.0 | 2.0 | 0.00 | 0.00 | 0.00 | 26 | 1012.5 |
| 20260830204757 | 101 | 208 | 1.0 | 1.0 | 0.00 | 0.00 | 0.00 | 26 | 1012.7 |
| 20260830204256 | 101 | 282 | 3.0 | 3.0 | 0.00 | 0.00 | 0.00 | 26 | 1012.8 |
| 20260830203752 | 100 | 46 | 2.0 | 2.0 | 0.00 | 0.00 | 0.00 | 26 | 1012.9 |
| 20260830203248 | 100 | 61 | 1.0 | 1.0 | 0.00 | 0.00 | 0.00 | 26 | 1013.1 |
| 20260830202747 | 100 | 170 | 1.0 | 1.0 | 0.00 | 0.00 | 0.00 | 27 | 1013.0 |
| 20260830202243 | 100 | 266 | 2.0 | 2.0 | 0.00 | 0.00 | 0.00 | 27 | 1013.4 |
| 20260830201742 | 100 | 255 | 2.0 | 2.0 | 0.00 | 0.00 | 0.00 | 27 | 1013.3 |
| 20260830201237 | 100 | 352 | 3.0 | 5.0 | 0.00 | 0.00 | 0.00 | 28 | 1013.5 |
| 20260830200733 | 100 | 58 | 2.0 | 2.0 | 0.00 | 0.00 | 0.00 | 27 | 1013.4 |
| 20260830200232 | 99 | 289 | 3.0 | 3.0 | 0.00 | 0.00 | 0.00 | 28 | 1013.5 |
| 20260830195727 | 100 | 277 | 3.0 | 3.0 | 0.00 | 0.00 | 0.00 | 28 | 1013.5 |
| 20260830195226 | 99 | 243 | 3.0 | 2.0 | 0.00 | 0.00 | 0.00 | 29 | 1013.9 |
| 20260830194724 | 98 | 39 | 2.0 | 2.0 | 0.00 | 0.00 | 0.00 | 29 | 1013.6 |
| 20260830194219 | 98 | 303 | 2.0 | 3.0 | 0.00 | 0.00 | 0.00 | 29 | 1013.5 |
| 20260830193714 | 98 | 235 | 4.0 | 5.0 | 0.00 | 0.00 | 0.00 | 30 | 1014.1 |
| 20260830193208 | 99 | 308 | 2.0 | 2.0 | 0.00 | 0.00 | 0.00 | 30 | 1013.9 |
| 20260830192704 | 98 | 261 | 1.0 | 1.0 | 0.00 | 0.00 | 0.00 | 30 | 1014.1 |
| 20260830192159 | 98 | 138 | 3.0 | 5.0 | 0.00 | 0.00 | 0.00 | 29 | 1014.1 |
| 20260830191655 | 97 | 6 | 3.0 | 3.0 | 0.00 | 0.00 | 0.00 | 31 | 1014.2 |
| 20260830191149 | 96 | 148 | 2.0 | 2.0 | 0.00 | 0.00 | 0.00 | 31 | 1014.4 |
| 20260830190644 | 96 | 293 | 3.0 | 3.0 | 0.00 | 0.00 | 0.00 | 32 | 1014.3 |
| 20260830190139 | 96 | 251 | 7.0 | 7.0 | 0.00 | 0.00 | 0.00 | 31 | 1014.5 |
| 20260830185638 | 97 | 239 | 5.0 | 7.0 | 0.00 | 0.00 | 0.00 | 31 | 1014.6 |
| 20260830185134 | 97 | 214 | 6.0 | 9.0 | 0.00 | 0.00 | 0.00 | 31 | 1014.5 |
| 20260830184633 | 97 | 289 | 1.0 | 2.0 | 0.00 | 0.00 | 0.00 | 31 | 1014.6 |
| 20260830184128 | 96 | 277 | 2.0 | 3.0 | 0.00 | 0.00 | 0.00 | 32 | 1014.6 |
| 20260830183628 | 96 | 238 | 4.0 | 5.0 | 0.00 | 0.00 | 0.00 | 33 | 1014.6 |
| 20260830183123 | 95 | 130 | 3.0 | 5.0 | 0.00 | 0.00 | 0.00 | 32 | 1014.9 |
| 20260830182619 | 95 | 198 | 2.0 | 2.0 | 0.00 | 0.00 | 0.00 | 34 | 1014.9 |
| 20260830182115 | 96 | 114 | 2.0 | 2.0 | 0.00 | 0.00 | 0.00 | 34 | 1015.2 |
| 20260830181611 | 96 | 125 | 5.0 | 6.0 | 0.00 | 0.00 | 0.00 | 33 | 1015.0 |
| 20260830181110 | 96 | 176 | 1.0 | 1.0 | 0.00 | 0.00 | 0.00 | 33 | 1015.3 |
| 20260830180609 | 95 | 72 | 2.0 | 1.0 | 0.00 | 0.00 | 0.00 | 34 | 1015.2 |
| 20260830180109 | 95 | 134 | 3.0 | 3.0 | 0.00 | 0.00 | 0.00 | 34 | 1015.2 |
| 20260830175608 | 95 | 138 | 1.0 | 1.0 | 0.00 | 0.00 | 0.00 | 34 | 1015.3 |
| 20260830175104 | 95 | 167 | 1.0 | 1.0 | 0.00 | 0.00 | 0.00 | 34 | 1015.0 |
| 20260830174559 | 95 | 181 | 2.0 | 2.0 | 0.00 | 0.00 | 0.00 | 34 | 1015.2 |
| 20260830174054 | 95 | 213 | 1.0 | 1.0 | 0.00 | 0.00 | 0.00 | 35 | 1015.3 |
| 20260830173549 | 94 | 98 | 1.0 | 1.0 | 0.00 | 0.00 | 0.00 | 34 | 1015.3 |
| 20260830173044 | 93 | 111 | 4.0 | 5.0 | 0.00 | 0.00 | 0.00 | 35 | 1015.5 |
| 20260830172541 | 93 | 117 | 1.0 | 1.0 | 0.00 | 0.00 | 0.00 | 36 | 1015.5 |
| 20260830172037 | 93 | 153 | 1.0 | 1.0 | 0.00 | 0.00 | 0.00 | 37 | 1015.5 |
| 20260830171532 | 93 | 136 | 2.0 | 2.0 | 0.00 | 0.00 | 0.00 | 36 | 1015.7 |
| 20260830171032 | 92 | 113 | 0.0 | 0.0 | 0.00 | 0.00 | 0.00 | 38 | 1015.7 |
| 20260830170526 | 91 | 104 | 3.0 | 3.0 | 0.00 | 0.00 | 0.00 | 38 | 1015.6 |
| 20260830170026 | 91 | 111 | 2.0 | 2.0 | 0.00 | 0.00 | 0.00 | 38 | 1015.6 |
| 20260830165521 | 92 | 136 | 2.0 | 2.0 | 0.00 | 0.00 | 0.00 | 38 | 1015.5 |
| 20260830165017 | 92 | 150 | 2.0 | 3.0 | 0.00 | 0.00 | 0.00 | 37 | 1015.6 |
| 20260830164513 | 93 | 119 | 1.0 | 1.0 | 0.00 | 0.00 | 0.00 | 37 | 1015.7 |
| 20260830164009 | 92 | 130 | 2.0 | 3.0 | 0.00 | 0.00 | 0.00 | 37 | 1015.5 |
| 20260830163506 | 90 | 158 | 2.0 | 2.0 | 0.00 | 0.00 | 0.00 | 39 | 1015.4 |
| 20260830163004 | 91 | 140 | 3.0 | 3.0 | 0.00 | 0.00 | 0.00 | 39 | 1015.5 |
| 20260830162501 | 91 | 181 | 1.0 | 1.0 | 0.00 | 0.00 | 0.00 | 39 | 1015.8 |
| 20260830162000 | 91 | 184 | 0.0 | 1.0 | 0.00 | 0.00 | 0.00 | 39 | 1015.4 |
| 20260830161455 | 90 | 76 | 2.0 | 2.0 | 0.00 | 0.00 | 0.00 | 40 | 1015.8 |
| 20260830160950 | 89 | 151 | 2.0 | 2.0 | 0.00 | 0.00 | 0.00 | 41 | 1015.6 |
| 20260830160447 | 89 | 161 | 1.0 | 1.0 | 0.00 | 0.00 | 0.00 | 42 | 1015.8 |
| 20260830155941 | 89 | 174 | 2.0 | 3.0 | 0.00 | 0.00 | 0.00 | 41 | 1015.9 |
| 20260830155438 | 88 | 126 | 1.0 | 1.0 | 0.00 | 0.00 | 0.00 | 42 | 1015.9 |
| 20260830154932 | 88 | 167 | 2.0 | 2.0 | 0.00 | 0.00 | 0.00 | 43 | 1015.7 |
| 20260830154428 | 88 | 127 | 1.0 | 1.0 | 0.00 | 0.00 | 0.00 | 43 | 1015.8 |
| 20260830153924 | 88 | 188 | 3.0 | 3.0 | 0.00 | 0.00 | 0.00 | 42 | 1015.7 |
| 20260830153420 | 87 | 207 | 3.0 | 3.0 | 0.00 | 0.00 | 0.00 | 43 | 1015.8 |
| 20260830152919 | 87 | 188 | 2.0 | 2.0 | 0.00 | 0.00 | 0.00 | 44 | 1015.8 |
| 20260830152414 | 87 | 217 | 3.0 | 2.0 | 0.00 | 0.00 | 0.00 | 45 | 1015.9 |
| 20260830151908 | 87 | 170 | 1.0 | 1.0 | 0.00 | 0.00 | 0.00 | 44 | 1015.6 |
| 20260830151407 | 87 | 208 | 2.0 | 3.0 | 0.00 | 0.00 | 0.00 | 43 | 1015.5 |
| 20260830150903 | 87 | 145 | 1.0 | 1.0 | 0.00 | 0.00 | 0.00 | 43 | 1015.6 |
| 20260830150402 | 87 | 138 | 0.0 | 0.0 | 0.00 | 0.00 | 0.00 | 45 | 1015.6 |
| 20260830145856 | 86 | 132 | 1.0 | 1.0 | 0.00 | 0.00 | 0.00 | 46 | 1015.9 |
| 20260830145351 | 85 | 102 | 0.0 | 0.0 | 0.00 | 0.00 | 0.00 | 49 | 1015.6 |
| 20260830144846 | 85 | 102 | 0.0 | 0.0 | 0.00 | 0.00 | 0.00 | 48 | 1015.8 |
| 20260830144343 | 84 | 102 | 0.0 | 0.0 | 0.00 | 0.00 | 0.00 | 50 | 1015.7 |
| 20260830143838 | 84 | 102 | 0.0 | 0.0 | 0.00 | 0.00 | 0.00 | 50 | 1015.7 |
| 20260830143338 | 83 | 102 | 0.0 | 0.0 | 0.00 | 0.00 | 0.00 | 50 | 1015.7 |
| 20260830142832 | 83 | 102 | 0.0 | 0.0 | 0.00 | 0.00 | 0.00 | 51 | 1015.9 |
| 20260830142327 | 83 | 102 | 0.0 | 0.0 | 0.00 | 0.00 | 0.00 | 50 | 1015.7 |
| 20260830141822 | 83 | 102 | 0.0 | 0.0 | 0.00 | 0.00 | 0.00 | 50 | 1015.7 |
| 20260830141317 | 82 | 102 | 0.0 | 0.0 | 0.00 | 0.00 | 0.00 | 52 | 1015.9 |
| 20260830140812 | 82 | 103 | 0.0 | 0.0 | 0.00 | 0.00 | 0.00 | 53 | 1015.7 |
| 20260830140307 | 81 | 103 | 0.0 | 0.0 | 0.00 | 0.00 | 0.00 | 54 | 1015.9 |
| 20260830135801 | 81 | 103 | 0.0 | 0.0 | 0.00 | 0.00 | 0.00 | 53 | 1016.0 |
| 20260830135257 | 81 | 103 | 0.0 | 0.0 | 0.00 | 0.00 | 0.00 | 54 | 1015.9 |
| 20260830134752 | 81 | 102 | 0.0 | 0.0 | 0.00 | 0.00 | 0.00 | 54 | 1016.0 |
| 20260830134247 | 81 | 102 | 0.0 | 0.0 | 0.00 | 0.00 | 0.00 | 53 | 1015.7 |
| 20260830133743 | 81 | 102 | 0.0 | 0.0 | 0.00 | 0.00 | 0.00 | 52 | 1015.9 |
| 20260830133238 | 81 | 103 | 0.0 | 0.0 | 0.00 | 0.00 | 0.00 | 52 | 1015.9 |
| 20260830132734 | 81 | 103 | 0.0 | 0.0 | 0.00 | 0.00 | 0.00 | 52 | 1016.1 |
| 20260830132229 | 81 | 103 | 0.0 | 0.0 | 0.00 | 0.00 | 0.00 | 53 | 1015.7 |
| 20260830131728 | 81 | 103 | 0.0 | 0.0 | 0.00 | 0.00 | 0.00 | 53 | 1015.8 |
| 20260830131229 | 81 | 103 | 0.0 | 0.0 | 0.00 | 0.00 | 0.00 | 53 | 1015.7 |
| 20260830130724 | 81 | 103 | 0.0 | 0.0 | 0.00 | 0.00 | 0.00 | 52 | 1015.7 |
| 20260830130224 | 82 | 103 | 0.0 | 0.0 | 0.00 | 0.00 | 0.00 | 51 | 1015.7 |
| 20260830125718 | 82 | 103 | 0.0 | 0.0 | 0.00 | 0.00 | 0.00 | 50 | 1015.5 |
| 20260830125213 | 82 | 103 | 0.0 | 0.0 | 0.00 | 0.00 | 0.00 | 50 | 1015.5 |
| 20260830124710 | 82 | 132 | 0.0 | 0.0 | 0.00 | 0.00 | 0.00 | 50 | 1015.6 |
| 20260830124206 | 82 | 128 | 1.0 | 1.0 | 0.00 | 0.00 | 0.00 | 50 | 1015.4 |
| 20260830123703 | 82 | 130 | 1.0 | 1.0 | 0.00 | 0.00 | 0.00 | 50 | 1015.4 |
| 20260830123159 | 82 | 141 | 2.0 | 1.0 | 0.00 | 0.00 | 0.00 | 50 | 1015.4 |
| 20260830122656 | 82 | 140 | 2.0 | 3.0 | 0.00 | 0.00 | 0.00 | 50 | 1015.2 |
| 20260830122151 | 82 | 127 | 0.0 | 0.0 | 0.00 | 0.00 | 0.00 | 50 | 1015.6 |
| 20260830121647 | 82 | 128 | 1.0 | 1.0 | 0.00 | 0.00 | 0.00 | 50 | 1015.4 |
| 20260830121146 | 83 | 125 | 2.0 | 2.0 | 0.00 | 0.00 | 0.00 | 50 | 1015.5 |
| 20260830120641 | 83 | 116 | 0.0 | 0.0 | 0.00 | 0.00 | 0.00 | 49 | 1015.4 |
| 20260830120137 | 83 | 116 | 0.0 | 0.0 | 0.00 | 0.00 | 0.00 | 48 | 1015.2 |
| 20260830115633 | 83 | 142 | 2.0 | 2.0 | 0.00 | 0.00 | 0.00 | 48 | 1015.0 |
| 20260830115128 | 83 | 137 | 2.0 | 3.0 | 0.00 | 0.00 | 0.00 | 48 | 1014.8 |
| 20260830114625 | 84 | 131 | 4.0 | 3.0 | 0.00 | 0.00 | 0.00 | 47 | 1014.7 |
| 20260830114125 | 84 | 122 | 2.0 | 2.0 | 0.00 | 0.00 | 0.00 | 46 | 1014.7 |
| 20260830113620 | 84 | 101 | 1.0 | 1.0 | 0.00 | 0.00 | 0.00 | 45 | 1014.6 |
| 20260830113115 | 84 | 116 | 4.0 | 5.0 | 0.00 | 0.00 | 0.00 | 45 | 1014.4 |
| 20260830112612 | 84 | 180 | 6.0 | 8.0 | 0.00 | 0.00 | 0.00 | 44 | 1014.4 |
| 20260830112107 | 84 | 167 | 2.0 | 3.0 | 0.00 | 0.00 | 0.00 | 44 | 1014.4 |
| 20260830111603 | 84 | 84 | 1.0 | 3.0 | 0.00 | 0.00 | 0.00 | 43 | 1014.9 |
| 20260830111059 | 84 | 98 | 0.0 | 0.0 | 0.00 | 0.00 | 0.00 | 43 | 1014.8 |
| 20260830110558 | 84 | 112 | 1.0 | 1.0 | 0.00 | 0.00 | 0.00 | 42 | 1014.7 |
| 20260830110054 | 84 | 158 | 0.0 | 0.0 | 0.00 | 0.00 | 0.00 | 42 | 1014.7 |
| 20260830105549 | 85 | 194 | 1.0 | 1.0 | 0.00 | 0.00 | 0.00 | 42 | 1014.7 |
| 20260830105045 | 85 | 154 | 1.0 | 1.0 | 0.00 | 0.00 | 0.00 | 42 | 1014.7 |
| 20260830104541 | 85 | 198 | 3.0 | 3.0 | 0.00 | 0.00 | 0.00 | 41 | 1014.7 |
| 20260830104037 | 85 | 258 | 2.0 | 2.0 | 0.00 | 0.00 | 0.00 | 41 | 1014.6 |
| 20260830103532 | 84 | 159 | 1.0 | 1.0 | 0.00 | 0.00 | 0.00 | 41 | 1014.7 |
| 20260830103031 | 84 | 143 | 0.0 | 0.0 | 0.00 | 0.00 | 0.00 | 42 | 1014.4 |
| 20260830102531 | 84 | 127 | 0.0 | 0.0 | 0.00 | 0.00 | 0.00 | 42 | 1014.5 |
| 20260830102027 | 84 | 134 | 1.0 | 1.0 | 0.00 | 0.00 | 0.00 | 42 | 1014.3 |
| 20260830101522 | 84 | 143 | 3.0 | 3.0 | 0.00 | 0.00 | 0.00 | 42 | 1014.2 |
| 20260830101021 | 84 | 106 | 1.0 | 1.0 | 0.00 | 0.00 | 0.00 | 43 | 1014.2 |
| 20260830100516 | 84 | 115 | 0.0 | 0.0 | 0.00 | 0.00 | 0.00 | 43 | 1014.0 |
| 20260830100015 | 84 | 120 | 0.0 | 0.0 | 0.00 | 0.00 | 0.00 | 42 | 1013.9 |
| 20260830095510 | 85 | 122 | 0.0 | 0.0 | 0.00 | 0.00 | 0.00 | 42 | 1013.9 |
| 20260830095006 | 85 | 111 | 1.0 | 2.0 | 0.00 | 0.00 | 0.00 | 41 | 1013.8 |
| 20260830094502 | 85 | 101 | 3.0 | 3.0 | 0.00 | 0.00 | 0.00 | 41 | 1013.8 |
| 20260830093957 | 86 | 145 | 3.0 | 6.0 | 0.00 | 0.00 | 0.00 | 40 | 1013.6 |
| 20260830093452 | 86 | 122 | 3.0 | 5.0 | 0.00 | 0.00 | 0.00 | 40 | 1013.6 |
| 20260830092949 | 87 | 115 | 3.0 | 5.0 | 0.00 | 0.00 | 0.00 | 39 | 1013.4 |
| 20260830092444 | 87 | 95 | 3.0 | 3.0 | 0.00 | 0.00 | 0.00 | 39 | 1013.5 |
| 20260830091940 | 87 | 82 | 2.0 | 2.0 | 0.00 | 0.00 | 0.00 | 39 | 1013.5 |
| 20260830091440 | 86 | 117 | 2.0 | 2.0 | 0.00 | 0.00 | 0.00 | 39 | 1013.5 |
| 20260830090939 | 86 | 124 | 3.0 | 3.0 | 0.00 | 0.00 | 0.00 | 40 | 1013.3 |
| 20260830090434 | 86 | 120 | 2.0 | 2.0 | 0.00 | 0.00 | 0.00 | 40 | 1013.3 |
| 20260830085930 | 87 | 125 | 2.0 | 2.0 | 0.00 | 0.00 | 0.00 | 40 | 1013.1 |
| 20260830085424 | 86 | 117 | 3.0 | 3.0 | 0.00 | 0.00 | 0.00 | 40 | 1013.3 |
| 20260830084920 | 85 | 139 | 2.0 | 2.0 | 0.00 | 0.00 | 0.00 | 41 | 1013.2 |
| 20260830084415 | 85 | 154 | 2.0 | 2.0 | 0.00 | 0.00 | 0.00 | 43 | 1013.2 |
| 20260830083910 | 85 | 196 | 1.0 | 1.0 | 0.00 | 0.00 | 0.00 | 43 | 1013.3 |
| 20260830083406 | 86 | 133 | 0.0 | 0.0 | 0.00 | 0.00 | 0.00 | 43 | 1013.3 |
| 20260830082905 | 85 | 151 | 2.0 | 2.0 | 0.00 | 0.00 | 0.00 | 43 | 1013.2 |
| 20260830082401 | 86 | 175 | 2.0 | 2.0 | 0.00 | 0.00 | 0.00 | 43 | 1013.3 |
| 20260830081856 | 85 | 195 | 4.0 | 5.0 | 0.00 | 0.00 | 0.00 | 43 | 1013.3 |
| 20260830081351 | 85 | 240 | 2.0 | 3.0 | 0.00 | 0.00 | 0.00 | 43 | 1013.3 |
| 20260830080850 | 86 | 245 | 2.0 | 2.0 | 0.00 | 0.00 | 0.00 | 43 | 1013.0 |
| 20260830080347 | 86 | 248 | 4.0 | 6.0 | 0.00 | 0.00 | 0.00 | 43 | 1013.0 |
| 20260830075845 | 87 | 146 | 1.0 | 1.0 | 0.00 | 0.00 | 0.00 | 41 | 1012.9 |
| 20260830075341 | 87 | 130 | 3.0 | 5.0 | 0.00 | 0.00 | 0.00 | 41 | 1013.1 |
| 20260830074836 | 87 | 135 | 5.0 | 5.0 | 0.00 | 0.00 | 0.00 | 41 | 1012.8 |
| 20260830074332 | 87 | 155 | 4.0 | 5.0 | 0.00 | 0.00 | 0.00 | 41 | 1013.0 |
| 20260830073828 | 87 | 155 | 5.0 | 8.0 | 0.00 | 0.00 | 0.00 | 41 | 1013.1 |
| 20260830073323 | 87 | 143 | 0.0 | 1.0 | 0.00 | 0.00 | 0.00 | 41 | 1012.8 |
| 20260830072818 | 87 | 151 | 3.0 | 3.0 | 0.00 | 0.00 | 0.00 | 41 | 1013.0 |
| 20260830072314 | 87 | 68 | 3.0 | 5.0 | 0.00 | 0.00 | 0.00 | 41 | 1012.5 |
| 20260830071813 | 87 | 114 | 4.0 | 5.0 | 0.00 | 0.00 | 0.00 | 42 | 1012.5 |
| 20260830071308 | 86 | 57 | 3.0 | 5.0 | 0.00 | 0.00 | 0.00 | 42 | 1012.6 |
| 20260830070807 | 86 | 103 | 2.0 | 3.0 | 0.00 | 0.00 | 0.00 | 42 | 1012.6 |
| 20260830070301 | 86 | 78 | 4.0 | 7.0 | 0.00 | 0.00 | 0.00 | 41 | 1012.4 |
| 20260830065801 | 86 | 95 | 2.0 | 2.0 | 0.00 | 0.00 | 0.00 | 41 | 1012.6 |
| 20260830065255 | 86 | 121 | 3.0 | 5.0 | 0.00 | 0.00 | 0.00 | 42 | 1012.6 |
| 20260830064753 | 86 | 114 | 3.0 | 5.0 | 0.00 | 0.00 | 0.00 | 42 | 1012.4 |
| 20260830064244 | 85 | 111 | 2.0 | 2.0 | 0.00 | 0.00 | 0.00 | 43 | 1012.5 |
| 20260830063744 | 85 | 96 | 2.0 | 2.0 | 0.00 | 0.00 | 0.00 | 44 | 1012.7 |
| 20260830063243 | 85 | 114 | 1.0 | 1.0 | 0.00 | 0.00 | 0.00 | 44 | 1012.7 |
| 20260830062737 | 85 | 117 | 3.0 | 5.0 | 0.00 | 0.00 | 0.00 | 44 | 1012.9 |
| 20260830062232 | 85 | 54 | 3.0 | 3.0 | 0.00 | 0.00 | 0.00 | 44 | 1012.8 |
| 20260830061732 | 85 | 98 | 2.0 | 2.0 | 0.00 | 0.00 | 0.00 | 44 | 1013.1 |
| 20260830061228 | 85 | 117 | 3.0 | 3.0 | 0.00 | 0.00 | 0.00 | 45 | 1012.7 |
| 20260830060725 | 85 | 90 | 2.0 | 2.0 | 0.00 | 0.00 | 0.00 | 44 | 1012.9 |
| 20260830060221 | 85 | 106 | 2.0 | 2.0 | 0.00 | 0.00 | 0.00 | 44 | 1013.0 |
| 20260830055715 | 86 | 118 | 4.0 | 6.0 | 0.00 | 0.00 | 0.00 | 42 | 1012.9 |
| 20260830055212 | 86 | 139 | 1.0 | 1.0 | 0.00 | 0.00 | 0.00 | 41 | 1013.0 |
| 20260830054706 | 86 | 135 | 1.0 | 1.0 | 0.00 | 0.00 | 0.00 | 41 | 1013.1 |
| 20260830054202 | 86 | 120 | 1.0 | 1.0 | 0.00 | 0.00 | 0.00 | 41 | 1013.4 |
| 20260830053658 | 86 | 181 | 1.0 | 1.0 | 0.00 | 0.00 | 0.00 | 41 | 1013.8 |
| 20260830053157 | 86 | 200 | 0.0 | 0.0 | 0.00 | 0.00 | 0.00 | 41 | 1013.6 |
| 20260830052652 | 86 | 208 | 1.0 | 1.0 | 0.00 | 0.00 | 0.00 | 41 | 1014.1 |
| 20260830052148 | 86 | 278 | 0.0 | 0.0 | 0.00 | 0.00 | 0.00 | 41 | 1014.1 |
| 20260830051647 | 86 | 277 | 1.0 | 1.0 | 0.00 | 0.00 | 0.00 | 41 | 1014.3 |
| 20260830051143 | 86 | 276 | 0.0 | 0.0 | 0.00 | 0.00 | 0.00 | 41 | 1014.3 |
| 20260830050642 | 86 | 309 | 1.0 | 1.0 | 0.00 | 0.00 | 0.00 | 41 | 1014.3 |
| 20260830050137 | 86 | 291 | 3.0 | 3.0 | 0.00 | 0.00 | 0.00 | 41 | 1014.1 |
| 20260830045636 | 86 | 329 | 1.0 | 1.0 | 0.00 | 0.00 | 0.00 | 40 | 1014.4 |
| 20260830045131 | 86 | 8 | 1.0 | 1.0 | 0.00 | 0.00 | 0.00 | 40 | 1014.3 |
| 20260830044630 | 87 | 16 | 0.0 | 0.0 | 0.00 | 0.00 | 0.00 | 40 | 1014.4 |
| 20260830044125 | 87 | 0 | 3.0 | 3.0 | 0.00 | 0.00 | 0.00 | 40 | 1014.6 |
| 20260830043621 | 87 | 330 | 3.0 | 5.0 | 0.00 | 0.00 | 0.00 | 40 | 1014.5 |
| 20260830043120 | 87 | 336 | 3.0 | 5.0 | 0.00 | 0.00 | 0.00 | 39 | 1014.6 |
| 20260830042618 | 87 | 358 | 2.0 | 2.0 | 0.00 | 0.00 | 0.00 | 39 | 1014.6 |
| 20260830042113 | 87 | 326 | 3.0 | 3.0 | 0.00 | 0.00 | 0.00 | 39 | 1014.6 |
| 20260830041612 | 87 | 300 | 3.0 | 3.0 | 0.00 | 0.00 | 0.00 | 39 | 1014.5 |
| 20260830041111 | 88 | 325 | 3.0 | 3.0 | 0.00 | 0.00 | 0.00 | 39 | 1014.7 |
| 20260830040607 | 88 | 305 | 4.0 | 6.0 | 0.00 | 0.00 | 0.00 | 39 | 1014.7 |
| 20260830035600 | 89 | 260 | 3.0 | 3.0 | 0.00 | 0.00 | 0.00 | 38 | 1014.6 |
| 20260830035056 | 89 | 278 | 2.0 | 2.0 | 0.00 | 0.00 | 0.00 | 38 | 1014.7 |
| 20260830034552 | 89 | 257 | 1.0 | 1.0 | 0.00 | 0.00 | 0.00 | 38 | 1014.5 |
| 20260830034050 | 89 | 256 | 2.0 | 2.0 | 0.00 | 0.00 | 0.00 | 38 | 1014.4 |
| 20260830033546 | 89 | 305 | 1.0 | 1.0 | 0.00 | 0.00 | 0.00 | 38 | 1014.1 |
| 20260830033041 | 89 | 244 | 1.0 | 1.0 | 0.00 | 0.00 | 0.00 | 38 | 1014.1 |
| 20260830032540 | 89 | 287 | 1.0 | 1.0 | 0.00 | 0.00 | 0.00 | 38 | 1013.8 |
| 20260830032036 | 89 | 316 | 1.0 | 2.0 | 0.00 | 0.00 | 0.00 | 38 | 1014.0 |
| 20260830031531 | 89 | 278 | 3.0 | 3.0 | 0.00 | 0.00 | 0.00 | 39 | 1013.9 |
| 20260830031026 | 89 | 35 | 2.0 | 2.0 | 0.00 | 0.00 | 0.00 | 38 | 1013.4 |
| 20260830030522 | 89 | 278 | 5.0 | 6.0 | 0.00 | 0.00 | 0.00 | 39 | 1013.3 |
| 20260830030017 | 89 | 294 | 1.0 | 1.0 | 0.00 | 0.00 | 0.00 | 40 | 1013.3 |
| 20260830025516 | 89 | 305 | 0.0 | 0.0 | 0.00 | 0.00 | 0.00 | 40 | 1013.1 |
| 20260830025015 | 89 | 352 | 2.0 | 2.0 | 0.00 | 0.00 | 0.00 | 40 | 1013.1 |
| 20260830024510 | 89 | 8 | 1.0 | 1.0 | 0.00 | 0.00 | 0.00 | 41 | 1013.1 |